Hourly Weather Abadzekhskaya

Today, 23 October, Friday

Time Temperature Precipitation Wind Pressure Humidity
00:00 +10°C° 0 mm 1 mps 717 mmHg 64%
01:00 +10°C° 0 mm 1 mps 717 mmHg 60%
02:00 +10°C° 0 mm 1 mps 717 mmHg 57%
03:00 +10°C° 0 mm 1 mps 717 mmHg 50%
04:00 +10°C° 0 mm 1 mps 717 mmHg 47%
05:00 +10°C° 0 mm 1 mps 717 mmHg 43%
06:00 +10°C° 0 mm 1 mps 717 mmHg 40%
07:00 +12°C° 0 mm 1 mps 717 mmHg 38%
08:00 +13°C° 0 mm 1 mps 718 mmHg 35%
09:00 +15°C° 0 mm 1 mps 718 mmHg 33%
10:00 +18°C° 0 mm 1 mps 718 mmHg 29%
11:00 +20°C° 0 mm 1 mps 718 mmHg 25%
12:00 +22°C° 0 mm 1 mps 718 mmHg 21%
13:00 +22°C° 0 mm 1 mps 718 mmHg 24%
14:00 +21°C° 0 mm 1 mps 718 mmHg 26%
15:00 +21°C° 0 mm 1 mps 718 mmHg 28%
16:00 +15°C° 0 mm 1 mps 716 mmHg 40%
17:00 +13°C° 0 mm 0 mps 716 mmHg 42%
18:00 +13°C° 0 mm 0 mps 716 mmHg 44%
19:00 +13°C° 0 mm 1 mps 716 mmHg 45%
20:00 +13°C° 0 mm 1 mps 716 mmHg 46%
21:00 +13°C° 0 mm 1 mps 716 mmHg 48%
22:00 +12°C° 0 mm 1 mps 716 mmHg 48%
23:00 +12°C° 0 mm 1 mps 715 mmHg 49%

Tomorrow, 24 October, Saturday

Time Temperature Precipitation Wind Pressure Humidity
00:00 +12°C° 0 mm 1 mps 715 mmHg 49%
01:00 +12°C° 0 mm 1 mps 715 mmHg 49%
02:00 +12°C° 0 mm 1 mps 715 mmHg 49%
03:00 +12°C° 0 mm 1 mps 715 mmHg 49%
04:00 +12°C° 0 mm 1 mps 714 mmHg 49%
05:00 +11°C° 0 mm 1 mps 714 mmHg 49%
06:00 +11°C° 0 mm 1 mps 714 mmHg 48%
07:00 +13°C° 0 mm 1 mps 714 mmHg 46%
08:00 +15°C° 0 mm 1 mps 715 mmHg 43%
09:00 +16°C° 0 mm 0 mps 715 mmHg 41%
10:00 +20°C° 0 mm 1 mps 715 mmHg 36%
11:00 +21°C° 0 mm 1 mps 715 mmHg 31%
12:00 +23°C° 0 mm 1 mps 715 mmHg 26%
13:00 +23°C° 0 mm 1 mps 715 mmHg 27%
14:00 +23°C° 0 mm 1 mps 714 mmHg 28%
15:00 +23°C° 0 mm 1 mps 714 mmHg 28%
16:00 +21°C° 0 mm 1 mps 714 mmHg 34%
17:00 +18°C° 0 mm 1 mps 714 mmHg 39%
18:00 +15°C° 0 mm 1 mps 713 mmHg 44%
19:00 +14°C° 0 mm 1 mps 713 mmHg 45%
20:00 +14°C° 0 mm 1 mps 713 mmHg 46%
21:00 +13°C° 0 mm 1 mps 713 mmHg 47%
22:00 +13°C° 0 mm 2 mps 713 mmHg 46%
23:00 +13°C° 0 mm 2 mps 713 mmHg 46%

Day after tomorrow, 25 October, Sunday

Time Temperature Precipitation Wind Pressure Humidity
00:00 +13°C° 0 mm 2 mps 713 mmHg 45%
01:00 +13°C° 0 mm 2 mps 713 mmHg 44%
02:00 +13°C° 0 mm 2 mps 713 mmHg 43%
03:00 +12°C° 0 mm 2 mps 713 mmHg 42%
04:00 +12°C° 0 mm 2 mps 713 mmHg 42%
05:00 +12°C° 0 mm 1 mps 713 mmHg 41%
06:00 +12°C° 0 mm 1 mps 713 mmHg 41%
07:00 +14°C° 0 mm 1 mps 713 mmHg 40%
08:00 +15°C° 0 mm 1 mps 714 mmHg 38%
09:00 +18°C° 0 mm 1 mps 714 mmHg 37%
10:00 +20°C° 0 mm 1 mps 714 mmHg 34%
11:00 +21°C° 0 mm 1 mps 714 mmHg 30%
12:00 +23°C° 0 mm 1 mps 714 mmHg 27%
13:00 +23°C° 0 mm 1 mps 714 mmHg 28%
14:00 +23°C° 0 mm 1 mps 714 mmHg 30%
15:00 +22°C° 0 mm 1 mps 714 mmHg 32%
16:00 +20°C° 0 mm 1 mps 713 mmHg 40%
17:00 +18°C° 0 mm 1 mps 713 mmHg 49%
18:00 +13°C° 0 mm 0 mps 713 mmHg 57%
19:00 +14°C° 0 mm 1 mps 713 mmHg 59%
20:00 +13°C° 0 mm 1 mps 714 mmHg 61%
21:00 +13°C° 0 mm 1 mps 714 mmHg 63%
22:00 +13°C° 0 mm 1 mps 714 mmHg 62%
23:00 +13°C° 0 mm 1 mps 714 mmHg 62%

, 26 October, Monday

Time Temperature Precipitation Wind Pressure Humidity
00:00 +13°C° 0 mm 1 mps 714 mmHg 61%
01:00 +12°C° 0 mm 1 mps 714 mmHg 61%
02:00 +12°C° 0 mm 1 mps 714 mmHg 60%
03:00 +12°C° 0 mm 1 mps 714 mmHg 59%
04:00 +12°C° 0 mm 1 mps 714 mmHg 59%
05:00 +12°C° 0 mm 1 mps 714 mmHg 58%
06:00 +11°C° 0 mm 1 mps 714 mmHg 58%
07:00 +13°C° 0 mm 1 mps 714 mmHg 55%
08:00 +14°C° 0 mm 1 mps 714 mmHg 52%
09:00 +15°C° 0 mm 1 mps 715 mmHg 49%
10:00 +18°C° 0 mm 1 mps 715 mmHg 46%
11:00 +19°C° 0 mm 1 mps 715 mmHg 42%
12:00 +21°C° 0 mm 1 mps 715 mmHg 39%
13:00 +20°C° 0 mm 2 mps 715 mmHg 41%
14:00 +20°C° 0 mm 2 mps 715 mmHg 43%
15:00 +20°C° 0 mm 2 mps 715 mmHg 45%
16:00 +18°C° 0 mm 2 mps 715 mmHg 52%
17:00 +18°C° 0 mm 1 mps 714 mmHg 58%
18:00 +15°C° 0 mm 1 mps 714 mmHg 65%
19:00 +14°C° 0 mm 1 mps 714 mmHg 66%
20:00 +14°C° 0 mm 2 mps 714 mmHg 68%
21:00 +13°C° 0 mm 2 mps 714 mmHg 69%
22:00 +13°C° 0 mm 2 mps 714 mmHg 68%
23:00 +13°C° 0 mm 2 mps 714 mmHg 66%

26 October, Monday

Time Temperature Precipitation Wind Pressure Humidity
00:00 +13°C° 0 mm 1 mps 714 mmHg 61%
01:00 +12°C° 0 mm 1 mps 714 mmHg 61%
02:00 +12°C° 0 mm 1 mps 714 mmHg 60%
03:00 +12°C° 0 mm 1 mps 714 mmHg 59%
04:00 +12°C° 0 mm 1 mps 714 mmHg 59%
05:00 +12°C° 0 mm 1 mps 714 mmHg 58%
06:00 +11°C° 0 mm 1 mps 714 mmHg 58%
07:00 +13°C° 0 mm 1 mps 714 mmHg 55%
08:00 +14°C° 0 mm 1 mps 714 mmHg 52%
09:00 +15°C° 0 mm 1 mps 715 mmHg 49%
10:00 +18°C° 0 mm 1 mps 715 mmHg 46%
11:00 +19°C° 0 mm 1 mps 715 mmHg 42%
12:00 +21°C° 0 mm 1 mps 715 mmHg 39%
13:00 +20°C° 0 mm 2 mps 715 mmHg 41%
14:00 +20°C° 0 mm 2 mps 715 mmHg 43%
15:00 +20°C° 0 mm 2 mps 715 mmHg 45%
16:00 +18°C° 0 mm 2 mps 715 mmHg 52%
17:00 +18°C° 0 mm 1 mps 714 mmHg 58%
18:00 +15°C° 0 mm 1 mps 714 mmHg 65%
19:00 +14°C° 0 mm 1 mps 714 mmHg 66%
20:00 +14°C° 0 mm 2 mps 714 mmHg 68%
21:00 +13°C° 0 mm 2 mps 714 mmHg 69%
22:00 +13°C° 0 mm 2 mps 714 mmHg 68%
23:00 +13°C° 0 mm 2 mps 714 mmHg 66%

27 October, Tuesday

Time Temperature Precipitation Wind Pressure Humidity
00:00 +12°C° 0 mm 2 mps 714 mmHg 65%
01:00 +12°C° 0 mm 2 mps 714 mmHg 64%
02:00 +12°C° 0 mm 2 mps 714 mmHg 63%
03:00 +12°C° 0 mm 2 mps 714 mmHg 61%
04:00 +12°C° 0 mm 2 mps 714 mmHg 61%
05:00 +12°C° 0 mm 2 mps 714 mmHg 60%
06:00 +10°C° 0 mm 2 mps 714 mmHg 59%
07:00 +13°C° 0 mm 1 mps 714 mmHg 55%
08:00 +14°C° 0 mm 1 mps 715 mmHg 52%
09:00 +16°C° 0 mm 1 mps 715 mmHg 48%
10:00 +18°C° 0 mm 1 mps 715 mmHg 44%
11:00 +19°C° 0 mm 2 mps 715 mmHg 40%
12:00 +21°C° 0 mm 2 mps 715 mmHg 36%
13:00 +21°C° 0 mm 2 mps 715 mmHg 38%
14:00 +21°C° 0 mm 2 mps 715 mmHg 40%
15:00 +20°C° 0 mm 2 mps 715 mmHg 42%
16:00 +19°C° 0 mm 2 mps 715 mmHg 48%
17:00 +17°C° 0 mm 2 mps 714 mmHg 55%
18:00 +15°C° 0 mm 2 mps 714 mmHg 62%
19:00 +14°C° 0 mm 2 mps 714 mmHg 62%
20:00 +14°C° 0 mm 2 mps 714 mmHg 63%
21:00 +14°C° 0 mm 1 mps 714 mmHg 63%
22:00 +14°C° 0 mm 1 mps 714 mmHg 61%
23:00 +14°C° 0 mm 1 mps 714 mmHg 58%

28 October, Wednesday

Time Temperature Precipitation Wind Pressure Humidity
00:00 +14°C° 0 mm 1 mps 714 mmHg 56%
01:00 +13°C° 0 mm 1 mps 714 mmHg 55%
02:00 +13°C° 0 mm 1 mps 714 mmHg 53%
03:00 +13°C° 0 mm 1 mps 714 mmHg 52%
04:00 +13°C° 0 mm 1 mps 714 mmHg 51%
05:00 +13°C° 0 mm 1 mps 714 mmHg 49%
06:00 +13°C° 0 mm 1 mps 714 mmHg 47%
07:00 +15°C° 0 mm 1 mps 714 mmHg 45%
08:00 +16°C° 0 mm 1 mps 714 mmHg 42%
09:00 +17°C° 0 mm 0 mps 715 mmHg 40%
10:00 +21°C° 0 mm 1 mps 715 mmHg 36%
11:00 +23°C° 0 mm 1 mps 715 mmHg 31%
12:00 +24°C° 0 mm 1 mps 715 mmHg 27%
13:00 +24°C° 0 mm 1 mps 715 mmHg 29%
14:00 +24°C° 0 mm 1 mps 715 mmHg 30%
15:00 +24°C° 0 mm 2 mps 714 mmHg 32%
16:00 +21°C° 0 mm 1 mps 714 mmHg 39%
17:00 +19°C° 0 mm 1 mps 714 mmHg 47%
18:00 +16°C° 0 mm 1 mps 713 mmHg 54%
19:00 +15°C° 0 mm 1 mps 713 mmHg 54%
20:00 +15°C° 0 mm 1 mps 713 mmHg 54%
21:00 +15°C° 0 mm 1 mps 713 mmHg 54%
22:00 +15°C° 0 mm 1 mps 713 mmHg 53%
23:00 +15°C° 0 mm 1 mps 713 mmHg 51%
Show more